• In France
  • List of Countries
  • For 7 days
  • Water Temperature
  • Satellite Maps
  • Weather Map
  • Weather Widgets
  • user-avatar
    Login

    Hourly Weather Ngo

    Today, 20 August, Monday

    Time Temperature Precipitation Wind Pressure Humidity
    00:00 +26°C° 0.6 mm 2 mps 711 mmHg 67%
    01:00 +25°C° 0 mm 2 mps 711 mmHg 69%
    02:00 +25°C° 0.9 mm 3 mps 711 mmHg 72%
    03:00 +24°C° 0.9 mm 3 mps 711 mmHg 75%
    04:00 +24°C° 0.9 mm 3 mps 711 mmHg 77%
    05:00 +24°C° 0.2 mm 3 mps 711 mmHg 77%
    06:00 +24°C° 0.2 mm 3 mps 711 mmHg 77%
    07:00 +24°C° 0.2 mm 3 mps 712 mmHg 77%
    08:00 +26°C° 0 mm 3 mps 712 mmHg 69%
    09:00 +28°C° 0 mm 3 mps 712 mmHg 61%
    10:00 +30°C° 0 mm 3 mps 713 mmHg 53%
    11:00 +31°C° 0 mm 3 mps 712 mmHg 48%
    12:00 +33°C° 0 mm 3 mps 711 mmHg 43%
    13:00 +35°C° 0 mm 3 mps 711 mmHg 38%
    14:00 +34°C° 0 mm 2 mps 710 mmHg 38%
    15:00 +34°C° 0 mm 2 mps 709 mmHg 39%
    16:00 +34°C° 0 mm 2 mps 709 mmHg 39%
    17:00 +32°C° 0 mm 2 mps 709 mmHg 41%
    18:00 +31°C° 0 mm 1 mps 709 mmHg 44%
    19:00 +30°C° 0 mm 1 mps 709 mmHg 46%
    20:00 +29°C° 0.1 mm 1 mps 710 mmHg 48%
    21:00 +28°C° 0.1 mm 1 mps 710 mmHg 50%
    22:00 +28°C° 0.1 mm 1 mps 711 mmHg 52%
    23:00 +27°C° 0.1 mm 1 mps 711 mmHg 54%

    Tomorrow, 21 August, Tuesday

    Time Temperature Precipitation Wind Pressure Humidity
    00:00 +27°C° 0.1 mm 2 mps 711 mmHg 55%
    01:00 +27°C° 0.1 mm 2 mps 711 mmHg 57%
    02:00 +26°C° 0 mm 2 mps 710 mmHg 58%
    03:00 +26°C° 0 mm 3 mps 710 mmHg 59%
    04:00 +26°C° 0 mm 3 mps 710 mmHg 60%
    05:00 +26°C° 0 mm 3 mps 710 mmHg 59%
    06:00 +26°C° 0 mm 4 mps 710 mmHg 59%
    07:00 +25°C° 0 mm 4 mps 711 mmHg 58%
    08:00 +27°C° 0 mm 4 mps 711 mmHg 52%
    09:00 +29°C° 0 mm 4 mps 712 mmHg 47%
    10:00 +31°C° 0 mm 3 mps 712 mmHg 41%
    11:00 +33°C° 0 mm 3 mps 712 mmHg 37%
    12:00 +35°C° 0 mm 3 mps 711 mmHg 34%
    13:00 +36°C° 0 mm 2 mps 711 mmHg 30%
    14:00 +36°C° 0 mm 2 mps 710 mmHg 31%
    15:00 +36°C° 0 mm 2 mps 709 mmHg 31%
    16:00 +35°C° 0 mm 2 mps 708 mmHg 31%
    17:00 +33°C° 0 mm 1 mps 709 mmHg 33%
    18:00 +32°C° 0 mm 1 mps 709 mmHg 36%
    19:00 +31°C° 0 mm 1 mps 709 mmHg 38%
    20:00 +31°C° 0 mm 1 mps 710 mmHg 39%
    21:00 +31°C° 0 mm 1 mps 710 mmHg 41%
    22:00 +30°C° 0 mm 1 mps 711 mmHg 42%
    23:00 +30°C° 0 mm 1 mps 710 mmHg 44%

    Day after tomorrow, 22 August, Wednesday

    Time Temperature Precipitation Wind Pressure Humidity
    00:00 +29°C° 0 mm 2 mps 710 mmHg 45%
    01:00 +29°C° 0 mm 2 mps 710 mmHg 47%
    02:00 +28°C° 0 mm 2 mps 710 mmHg 49%
    03:00 +27°C° 0 mm 2 mps 709 mmHg 52%
    04:00 +27°C° 0 mm 3 mps 709 mmHg 55%
    05:00 +26°C° 0 mm 3 mps 710 mmHg 56%
    06:00 +26°C° 0 mm 3 mps 710 mmHg 58%
    07:00 +26°C° 0 mm 3 mps 710 mmHg 60%
    08:00 +27°C° 0 mm 3 mps 711 mmHg 55%
    09:00 +29°C° 0 mm 3 mps 712 mmHg 50%
    10:00 +30°C° 0 mm 3 mps 712 mmHg 44%
    11:00 +33°C° 0 mm 3 mps 712 mmHg 41%
    12:00 +34°C° 0 mm 3 mps 711 mmHg 38%
    13:00 +35°C° 0 mm 3 mps 710 mmHg 35%
    14:00 +35°C° 0 mm 3 mps 710 mmHg 35%
    15:00 +35°C° 0 mm 3 mps 709 mmHg 35%
    16:00 +35°C° 0 mm 3 mps 708 mmHg 35%
    17:00 +34°C° 0 mm 2 mps 709 mmHg 38%
    18:00 +32°C° 0 mm 2 mps 709 mmHg 40%
    19:00 +31°C° 0 mm 2 mps 710 mmHg 43%
    20:00 +31°C° 0 mm 2 mps 710 mmHg 44%
    21:00 +30°C° 0 mm 2 mps 711 mmHg 46%
    22:00 +30°C° 0 mm 2 mps 711 mmHg 47%
    23:00 +29°C° 0 mm 2 mps 711 mmHg 49%

    23 August, Thursday

    Time Temperature Precipitation Wind Pressure Humidity
    00:00 +28°C° 0 mm 2 mps 711 mmHg 52%
    01:00 +27°C° 0 mm 2 mps 710 mmHg 54%
    02:00 +27°C° 0 mm 2 mps 710 mmHg 56%
    03:00 +26°C° 0 mm 2 mps 710 mmHg 58%
    04:00 +26°C° 0 mm 2 mps 710 mmHg 60%
    05:00 +25°C° 0 mm 2 mps 710 mmHg 60%
    06:00 +25°C° 0 mm 2 mps 711 mmHg 60%
    07:00 +25°C° 0 mm 2 mps 711 mmHg 61%
    08:00 +27°C° 0 mm 2 mps 712 mmHg 56%
    09:00 +28°C° 0 mm 2 mps 712 mmHg 51%
    10:00 +30°C° 0 mm 3 mps 713 mmHg 46%
    11:00 +31°C° 0 mm 3 mps 712 mmHg 42%
    12:00 +34°C° 0 mm 3 mps 711 mmHg 38%
    13:00 +35°C° 0 mm 3 mps 710 mmHg 34%
    14:00 +35°C° 0 mm 3 mps 710 mmHg 35%
    15:00 +34°C° 0 mm 3 mps 709 mmHg 36%
    16:00 +33°C° 0 mm 3 mps 708 mmHg 37%
    17:00 +31°C° 0 mm 3 mps 709 mmHg 40%
    18:00 +30°C° 0 mm 3 mps 709 mmHg 43%
    19:00 +29°C° 0 mm 3 mps 710 mmHg 46%
    20:00 +29°C° 0 mm 3 mps 710 mmHg 47%
    21:00 +28°C° 0 mm 2 mps 710 mmHg 49%
    22:00 +28°C° 0 mm 2 mps 711 mmHg 50%
    23:00 +27°C° 0 mm 2 mps 710 mmHg 51%

    24 August, Friday

    Time Temperature Precipitation Wind Pressure Humidity
    00:00 +27°C° 0 mm 2 mps 710 mmHg 53%
    01:00 +26°C° 0 mm 2 mps 710 mmHg 54%
    02:00 +26°C° 0 mm 2 mps 710 mmHg 55%
    03:00 +26°C° 0 mm 2 mps 709 mmHg 56%
    04:00 +25°C° 0 mm 2 mps 709 mmHg 57%
    05:00 +25°C° 0 mm 1 mps 710 mmHg 57%
    06:00 +25°C° 0 mm 1 mps 710 mmHg 58%
    07:00 +25°C° 0 mm 1 mps 711 mmHg 58%
    08:00 +27°C° 0 mm 2 mps 711 mmHg 53%
    09:00 +28°C° 0 mm 2 mps 711 mmHg 49%
    10:00 +29°C° 0 mm 2 mps 712 mmHg 44%
    11:00 +31°C° 0 mm 2 mps 711 mmHg 40%
    12:00 +32°C° 0 mm 2 mps 710 mmHg 37%
    13:00 +35°C° 0 mm 2 mps 710 mmHg 33%
    14:00 +34°C° 0 mm 2 mps 709 mmHg 33%
    15:00 +34°C° 0 mm 3 mps 709 mmHg 33%
    16:00 +34°C° 0 mm 3 mps 709 mmHg 33%
    17:00 +32°C° 0 mm 2 mps 709 mmHg 37%
    18:00 +31°C° 0 mm 2 mps 709 mmHg 40%
    19:00 +29°C° 0 mm 2 mps 709 mmHg 44%
    20:00 +28°C° 0 mm 2 mps 710 mmHg 47%
    21:00 +28°C° 0 mm 2 mps 710 mmHg 51%
    22:00 +27°C° 0 mm 2 mps 710 mmHg 54%
    23:00 +26°C° 0 mm 2 mps 710 mmHg 57%

    25 August, Saturday

    Time Temperature Precipitation Wind Pressure Humidity
    00:00 +26°C° 0 mm 2 mps 710 mmHg 59%
    01:00 +25°C° 0 mm 1 mps 710 mmHg 62%
    02:00 +25°C° 0 mm 1 mps 709 mmHg 63%
    03:00 +25°C° 0 mm 1 mps 709 mmHg 64%
    04:00 +25°C° 0 mm 1 mps 709 mmHg 65%
    05:00 +25°C° 0 mm 1 mps 710 mmHg 65%
    06:00 +25°C° 0 mm 1 mps 711 mmHg 64%
    07:00 +25°C° 0 mm 1 mps 711 mmHg 63%
    08:00 +27°C° 0 mm 2 mps 712 mmHg 58%
    09:00 +28°C° 0 mm 2 mps 712 mmHg 53%
    10:00 +30°C° 0 mm 2 mps 713 mmHg 47%
    11:00 +31°C° 0 mm 2 mps 712 mmHg 44%
    12:00 +32°C° 0 mm 2 mps 711 mmHg 41%
    13:00 +34°C° 0 mm 3 mps 711 mmHg 37%
    14:00 +34°C° 0 mm 2 mps 710 mmHg 38%
    15:00 +34°C° 0 mm 2 mps 709 mmHg 38%
    16:00 +34°C° 0 mm 2 mps 709 mmHg 38%
    17:00 +31°C° 0 mm 2 mps 709 mmHg 41%
    18:00 +30°C° 0 mm 1 mps 709 mmHg 44%
    19:00 +29°C° 0 mm 1 mps 710 mmHg 48%
    20:00 +29°C° 0 mm 1 mps 710 mmHg 49%
    21:00 +28°C° 0 mm 1 mps 710 mmHg 50%
    22:00 +28°C° 0 mm 1 mps 711 mmHg 51%
    23:00 +28°C° 0 mm 1 mps 710 mmHg 53%
    Show more